Temperature
10 10 10 10 10 10 9 9 10 10 9 9 9 8 8 7 6 6 5 4 3 2 1 1 0 0 -0 -1 -1 -2 -4 -5 -5 -5 -6 -6 -6 -6 -7 -7 -6 -6 -6
10 10 10 10 10 9 8 9 9 9 8 8 8 8 7 6 5 4 4 3 2 1 1 0 -0 -1 -1 -2 -3 -4 -5 -6 -6 -6 -7 -7 -7 -7 -7 -7 -7 -7 -7
10 9 9 9 8 8 8 8 8 8 8 8 7 7 6 5 4 4 3 2 1 1 0 -1 -1 -2 -2 -3 -5 -5 -6 -7 -7 -7 -8 -8 -7 -7 -7 -7 -7 -7 -8
9 9 8 7 7 7 7 8 8 8 8 7 7 6 5 4 3 3 2 1 1 0 -0 -1 -2 -3 -4 -5 -6 -6 -7 -8 -8 -8 -8 -8 -8 -8 -8 -8 -8 -8 -8
7 7 6 6 6 6 6 7 7 7 7 7 6 5 4 3 3 2 1 1 0 -0 -1 -2 -3 -4 -5 -6 -7 -7 -7 -8 -8 -8 -8 -8 -8 -8 -8 -8 -9 -9 -8
5 5 4 5 5 5 5 6 7 7 6 5 5 4 3 3 2 1 1 0 -0 -1 -1 -2 -4 -5 -6 -7 -7 -7 -8 -8 -8 -8 -8 -8 -9 -9 -9 -9 -9 -9 -9
3 4 4 4 4 4 5 6 6 6 5 4 3 3 2 2 1 0 -0 -1 -1 -2 -3 -4 -5 -6 -7 -7 -8 -8 -8 -8 -8 -8 -9 -9 -9 -9 -9 -9 -9 -9 -9
3 3 3 4 4 4 5 6 5 4 4 3 3 2 1 1 0 -0 -1 -1 -2 -3 -5 -6 -7 -7 -7 -8 -8 -8 -8 -8 -9 -9 -9 -9 -9 -9 -9 -9 -9 -9 -9
3 3 3 3 4 5 5 5 4 4 3 2 2 1 0 -0 -1 -1 -2 -2 -3 -5 -6 -7 -7 -8 -8 -8 -8 -8 -8 -9 -9 -9 -9 -9 -9 -9 -9 -9 -9 -9 -10
2 3 3 4 5 5 4 4 3 2 2 1 1 0 -1 -2 -3 -3 -4 -4 -5 -6 -7 -7 -8 -8 -8 -8 -8 -9 -9 -9 -9 -9 -8 -8 -8 -8 -8 -9 -10 -10 -10
3 3 4 4 4 4 3 2 2 1 1 0 -0 -1 -2 -3 -4 -5 -6 -7 -8 -8 -8 -8 -8 -9 -9 -9 -9 -9 -9 -9 -9 -9 -9 -8 -7 -7 -7 -8 -9 -10 -10
4 4 4 3 3 2 2 1 1 0 -0 -1 -2 -2 -3 -4 -5 -6 -7 -8 -9 -9 -9 -9 -9 -9 -9 -9 -9 -9 -9 -9 -9 -9 -9 -8 -8 -8 -8 -8 -8 -8 -9
4 3 3 2 2 1 1 0 -0 -1 -1 -2 -2 -3 -4 -5 -6 -7 -8 -8 -9 -9 -9 -9 -9 -9 -9 -9 -9 -10 -10 -9 -9 -10 -9 -8 -8 -8 -8 -8 -7 -8 -8
3 2 1 1 0 0 -0 -1 -1 -1 -2 -2 -3 -4 -5 -6 -7 -8 -8 -8 -8 -9 -9 -9 -9 -9 -9 -10 -10 -9 -9 -9 -10 -10 -9 -8 -8 -8 -8 -8 -8 -9 -9
2 1 0 0 -0 -1 -1 -2 -2 -2 -3 -3 -4 -5 -6 -6 -7 -8 -9 -9 -10 -10 -10 -10 -9 -9 -9 -9 -9 -9 -9 -9 -9 -9 -8 -8 -8 -8 -8 -8 -8 -8 -9
1 0 -0 -1 -1 -1 -2 -2 -2 -3 -4 -4 -5 -6 -7 -7 -8 -8 -9 -9 -10 -10 -10 -10 -9 -10 -10 -10 -9 -9 -9 -9 -9 -9 -8 -8 -8 -8 -8 -7 -8 -8 -9
0 -0 -1 -1 -2 -2 -2 -3 -3 -4 -5 -6 -7 -8 -8 -9 -9 -9 -10 -10 -10 -10 -10 -10 -10 -10 -10 -10 -10 -10 -9 -9 -9 -8 -8 -8 -8 -8 -8 -8 -8 -8 -8
-1 -1 -1 -2 -2 -2 -3 -4 -4 -5 -6 -6 -7 -8 -9 -9 -9 -10 -10 -10 -9 -9 -10 -10 -10 -10 -10 -10 -10 -10 -9 -9 -8 -8 -8 -8 -8 -8 -8 -8 -8 -8 -8
-1 -1 -2 -2 -3 -3 -4 -4 -5 -6 -7 -7 -8 -8 -9 -9 -9 -10 -11 -10 -10 -10 -10 -10 -10 -10 -10 -10 -10 -9 -9 -9 -8 -8 -8 -8 -8 -8 -8 -8 -8 -7 -8
-2 -2 -3 -3 -4 -4 -5 -5 -6 -7 -7 -8 -9 -9 -10 -10 -9 -10 -10 -10 -11 -11 -10 -10 -10 -10 -10 -10 -9 -9 -9 -8 -8 -8 -8 -8 -8 -8 -8 -8 -8 -8 -8
-3 -3 -4 -4 -4 -5 -6 -6 -7 -8 -8 -9 -9 -10 -11 -11 -10 -10 -10 -11 -11 -11 -11 -10 -10 -10 -9 -9 -9 -9 -9 -8 -8 -8 -8 -8 -8 -8 -7 -7 -7 -7 -8
-4 -4 -4 -5 -5 -6 -6 -7 -8 -8 -9 -9 -10 -10 -10 -11 -11 -11 -11 -11 -11 -11 -11 -10 -10 -9 -9 -9 -9 -9 -8 -8 -8 -8 -8 -8 -8 -7 -7 -8 -8 -8 -8
-4 -5 -5 -5 -6 -7 -7 -8 -9 -9 -10 -10 -10 -11 -11 -11 -11 -11 -11 -11 -11 -10 -10 -10 -9 -9 -9 -9 -8 -8 -8 -8 -8 -8 -8 -8 -8 -8 -8 -8 -8 -8 -8
-5 -5 -5 -6 -7 -7 -8 -9 -9 -10 -10 -11 -11 -11 -11 -11 -11 -11 -11 -11 -11 -10 -10 -9 -9 -9 -8 -8 -8 -8 -8 -8 -7 -7 -7 -7 -7 -7 -7 -7 -7 -7 -7
-5 -6 -6 -7 -8 -8 -9 -10 -10 -11 -11 -11 -11 -11 -11 -11 -11 -11 -11 -11 -10 -10 -9 -9 -9 -8 -8 -8 -8 -8 -8 -7 -7 -7 -7 -7 -7 -7 -7 -7 -7 -7 -7
-6 -6 -7 -8 -9 -9 -10 -10 -11 -11 -11 -11 -11 -11 -11 -11 -11 -11 -11 -11 -10 -10 -9 -9 -8 -8 -8 -8 -8 -7 -7 -7 -7 -7 -7 -6 -6 -6 -6 -7 -7 -7 -7
Wind_Speed
15 15 15 14 16 15 13 13 14 14 14 13 11 10 9 8 6 5 3 4 2 2 1 1 1 1 2 3 4 4 5 5 11 9 6 6 8 10 14 18 20 19 21
16 16 15 15 15 14 14 14 14 14 12 11 10 9 8 7 5 3 1 2 2 2 2 2 2 2 3 4 4 5 5 6 9 13 7 7 10 11 11 11 14 19 19
16 16 15 15 15 15 15 15 14 14 12 10 9 9 8 7 5 3 3 3 3 2 2 2 3 3 4 4 4 5 5 7 7 10 11 8 8 10 11 12 13 10 17
14 15 15 14 14 15 15 14 14 13 12 10 10 9 8 6 4 4 4 4 4 4 3 3 4 5 5 4 4 6 6 6 7 9 11 11 9 9 9 10 11 8 10
14 14 14 15 15 15 14 14 14 12 12 11 10 8 6 4 5 6 5 5 6 6 6 5 4 6 8 8 7 6 6 6 7 9 11 11 10 8 9 8 12 11 11
14 15 16 16 15 14 14 13 14 13 11 10 8 7 5 5 6 5 4 4 5 7 7 5 4 7 10 13 14 15 14 11 9 10 11 12 13 11 9 11 13 15 14
15 17 17 17 15 13 13 14 13 11 10 9 7 6 6 7 5 3 6 5 6 7 7 5 5 6 9 4 10 15 14 20 21 14 13 13 12 10 10 13 14 16 17
16 17 16 16 14 12 12 13 11 9 8 7 6 5 4 5 5 3 7 6 7 8 7 5 5 5 6 10 7 6 8 11 16 13 10 11 12 11 13 16 16 14 14
16 16 15 13 14 13 12 11 9 8 7 6 5 4 3 3 4 4 7 4 6 7 7 6 7 6 13 16 9 8 10 10 18 22 23 23 27 28 22 13 10 12 16
15 14 13 12 13 13 11 10 8 7 6 5 4 3 2 1 1 4 7 3 5 6 6 7 12 13 16 17 10 9 11 10 11 12 15 19 16 17 22 12 9 12 15
14 14 13 12 12 12 10 8 8 6 5 3 2 1 0 2 2 5 8 3 4 5 5 5 7 16 18 20 19 10 14 16 9 9 10 11 10 9 10 9 9 11 14
13 14 13 11 10 10 9 8 6 5 4 4 3 4 3 4 4 6 9 10 11 6 6 5 8 18 21 22 17 16 21 17 8 8 10 11 10 11 11 11 12 12 13
14 14 12 11 9 8 7 7 5 4 4 3 3 3 3 3 5 8 10 14 15 9 7 14 18 21 21 13 15 19 15 8 7 9 11 11 9 10 11 11 12 12 14
14 12 10 9 8 7 6 5 5 5 5 4 4 4 4 5 4 3 4 7 11 9 8 13 19 19 15 13 12 10 7 8 10 9 11 12 12 10 11 11 13 12 13
12 9 8 7 7 6 6 5 5 5 4 3 3 3 4 4 7 13 10 7 7 9 11 6 5 6 5 6 6 6 6 8 9 10 11 12 13 13 13 11 11 12 13
10 8 6 6 5 5 4 3 3 2 1 1 3 4 5 8 13 15 16 16 17 18 12 5 5 5 6 8 9 10 10 10 10 11 11 12 12 13 14 13 12 12 14
9 7 6 5 5 4 4 4 3 2 3 5 6 7 8 11 13 15 16 16 16 15 6 5 5 6 6 7 8 9 11 11 10 11 11 12 12 12 13 13 13 13 13
8 8 7 5 5 4 4 3 2 2 3 4 6 9 10 12 15 16 15 12 8 7 5 5 6 6 6 7 9 10 11 11 11 11 11 12 12 12 13 13 13 14 14
7 5 5 5 4 3 2 2 2 3 3 4 4 6 9 12 14 14 12 5 6 7 6 6 6 6 7 8 9 10 11 11 12 12 12 12 12 12 13 13 14 19 17
6 8 6 4 3 2 2 3 3 3 4 4 4 4 5 6 5 7 6 5 5 6 6 6 7 7 8 9 10 10 11 11 12 11 12 12 12 12 14 16 15 15 15
5 4 4 3 2 1 2 3 3 3 4 4 4 7 12 6 6 7 7 6 6 7 6 7 7 8 8 9 9 10 12 12 12 12 12 12 13 13 13 14 15 15 14
4 3 1 1 2 2 2 3 3 4 4 5 4 7 13 6 6 6 7 7 7 6 6 7 8 8 8 9 10 11 12 12 12 12 13 13 13 14 14 14 13 12 12
4 2 1 1 1 4 4 3 4 4 4 5 5 6 6 6 6 6 7 7 8 8 7 8 9 10 8 10 10 11 12 13 13 14 14 15 14 13 12 12 13 13 13
2 1 1 2 2 3 3 4 4 4 4 5 5 5 5 6 7 8 7 7 8 8 9 9 9 13 15 14 14 15 15 17 17 14 17 15 14 12 11 11 11 12 12
1 1 2 3 3 3 4 4 4 4 5 5 6 6 6 7 7 7 7 8 9 10 11 12 12 12 15 17 19 19 22 26 26 19 12 10 10 11 11 11 11 12 12
1 2 3 3 3 3 4 4 4 4 5 5 6 6 7 7 7 7 8 8 9 10 11 12 14 17 20 19 20 22 25 27 26 23 12 8 9 9 11 9 11 11 11
Wind_Direction
146 138 139 139 140 144 145 140 138 138 137 134 130 128 129 133 133 138 163 158 190 273 293 243 278 313 296 289 289 284 278 276 287 292 286 295 306 304 302 298 300 297 295
132 134 135 136 138 137 134 132 132 132 129 127 126 125 123 117 112 117 133 139 218 255 286 308 295 298 299 290 281 277 280 278 287 300 304 305 301 297 296 297 304 301 299
128 131 134 134 134 132 130 130 128 125 122 117 113 110 106 101 92 67 42 10 338 304 279 269 276 288 284 280 290 298 296 302 304 304 303 297 294 295 298 296 294 294 299
125 130 132 129 126 125 125 124 122 121 116 109 103 100 102 106 96 58 24 354 332 318 297 265 253 252 255 261 285 281 285 290 290 292 295 296 293 290 292 298 300 290 297
127 128 123 118 116 117 118 119 116 113 109 105 105 105 108 108 82 55 19 353 341 326 309 287 272 285 289 285 282 273 288 284 286 290 294 298 299 301 298 297 302 303 294
127 121 116 114 114 115 117 114 109 105 104 104 108 114 114 103 86 48 360 339 328 313 301 299 312 304 295 301 305 305 303 302 301 295 298 298 297 293 297 301 302 301 299
116 114 112 114 115 115 120 114 110 109 109 108 107 103 102 117 104 41 343 337 306 289 282 278 285 290 308 310 300 302 304 304 303 299 295 292 293 293 293 294 293 293 294
110 111 115 119 121 120 115 109 109 109 107 106 103 97 99 138 121 36 345 341 305 292 290 284 282 291 302 302 289 292 287 292 293 296 288 288 294 291 287 292 293 294 290
113 117 121 125 122 114 107 104 103 103 100 99 94 87 78 117 124 17 348 328 306 307 314 324 321 298 303 308 310 299 293 291 303 302 302 302 303 304 305 303 298 298 297
113 115 115 114 110 106 103 97 93 94 96 100 102 104 110 121 72 352 345 329 316 321 323 319 315 310 309 313 311 301 302 300 298 301 304 303 300 299 304 300 296 298 297
114 111 106 102 101 100 97 92 93 93 92 90 85 43 109 129 28 339 336 329 299 300 298 297 299 311 312 312 312 304 302 307 305 304 302 299 298 297 296 291 289 290 291
108 103 98 94 96 96 95 91 87 84 74 61 51 29 22 31 6 331 328 329 326 312 300 294 299 312 313 313 314 310 311 315 308 302 300 299 299 298 297 295 290 284 276
102 98 93 88 85 90 94 94 85 72 69 50 36 18 356 3 344 341 340 333 326 322 309 314 316 316 316 313 312 316 320 315 303 301 302 300 295 292 295 296 293 288 283
100 97 95 94 88 78 74 73 75 65 55 36 25 12 355 347 340 347 324 314 318 316 307 309 314 314 315 320 322 321 314 305 309 306 305 302 301 299 299 298 299 301 298
97 95 93 91 95 89 80 68 70 82 80 44 14 1 341 320 312 321 323 313 309 305 311 303 303 307 319 324 316 311 312 315 314 308 303 303 302 302 300 300 298 299 296
99 93 90 87 84 84 83 80 96 104 85 342 307 305 304 307 316 322 320 317 317 317 318 311 311 318 322 323 322 319 316 315 311 307 302 299 299 299 300 300 298 296 295
97 93 85 85 83 76 62 45 17 326 281 291 293 303 307 315 321 321 318 318 322 328 332 319 315 315 314 315 313 311 309 309 306 302 298 297 298 298 298 299 299 297 295
87 87 89 80 74 68 60 33 4 343 329 320 323 321 322 327 328 325 324 330 328 329 319 312 310 310 312 310 309 306 305 305 304 301 299 298 298 298 297 297 298 297 298
85 78 78 79 66 54 34 357 334 330 318 309 309 321 330 332 330 330 337 337 318 318 316 311 306 304 304 304 302 300 299 300 299 300 299 298 298 298 297 297 298 299 301
75 74 69 65 57 31 2 337 329 326 317 311 313 309 313 321 321 325 328 316 313 312 311 307 304 299 300 300 299 298 298 298 300 299 298 298 298 297 297 299 300 300 299
97 82 56 30 37 14 336 323 320 314 307 306 305 315 327 335 328 321 322 322 318 314 308 305 302 299 296 296 295 294 295 296 296 297 297 297 298 299 299 297 297 296 297
89 99 72 30 355 331 322 316 312 307 309 312 314 323 330 334 320 316 317 317 313 307 303 303 299 294 291 292 294 295 295 295 295 295 295 296 297 296 296 295 297 303 310
81 87 32 322 318 319 325 316 316 315 315 317 320 323 326 323 318 315 314 315 313 308 304 301 298 296 294 294 292 290 289 289 290 291 292 294 295 296 298 304 310 317 320
79 58 325 317 323 327 324 322 321 317 317 316 317 316 315 314 312 311 310 306 306 303 303 302 297 295 296 300 299 294 288 287 287 286 285 290 301 312 316 317 317 317 319
65 2 339 340 339 329 322 319 318 319 323 322 317 315 312 308 305 303 302 303 305 305 303 304 302 300 300 301 300 298 297 300 303 305 303 308 311 313 313 314 318 321 323
39 356 341 335 327 320 317 316 317 320 317 309 304 299 298 299 300 301 303 305 308 309 308 308 305 304 304 304 301 301 305 309 313 319 323 314 315 314 318 318 320 324 325
Height
1413 1418 1424 1429 1435 1441 1446 1451 1456 1462 1468 1473 1478 1482 1484 1486 1487 1488 1488 1487 1486 1485 1484 1482 1481 1479 1478 1476 1474 1471 1469 1466 1459 1452 1452 1450 1446 1442 1438 1434 1430 1425 1421
1408 1415 1421 1428 1433 1438 1444 1449 1455 1460 1467 1472 1476 1479 1481 1483 1484 1485 1484 1483 1482 1481 1479 1478 1476 1474 1472 1470 1468 1465 1463 1461 1456 1448 1445 1443 1439 1436 1431 1427 1423 1419 1414
1407 1413 1420 1426 1431 1436 1442 1448 1453 1460 1466 1471 1474 1477 1479 1480 1481 1481 1481 1479 1478 1476 1474 1472 1471 1469 1466 1464 1462 1460 1457 1454 1451 1445 1439 1436 1432 1429 1424 1419 1415 1411 1407
1406 1413 1419 1424 1429 1435 1441 1446 1453 1460 1465 1469 1472 1474 1476 1477 1478 1477 1476 1475 1473 1471 1470 1468 1465 1463 1461 1458 1456 1454 1451 1448 1445 1440 1434 1429 1426 1422 1419 1413 1406 1402 1397
1407 1413 1418 1423 1428 1434 1440 1446 1453 1459 1464 1467 1470 1472 1473 1474 1474 1473 1472 1470 1468 1467 1465 1463 1460 1458 1456 1454 1452 1449 1447 1443 1439 1434 1429 1424 1420 1416 1412 1407 1400 1394 1388
1409 1413 1417 1423 1429 1434 1441 1447 1453 1458 1462 1465 1467 1469 1470 1470 1470 1468 1467 1466 1464 1462 1459 1457 1455 1453 1450 1449 1447 1445 1442 1439 1434 1430 1424 1420 1414 1410 1406 1401 1395 1387 1379
1409 1413 1418 1424 1430 1436 1443 1448 1453 1457 1461 1463 1465 1466 1466 1466 1466 1464 1463 1461 1459 1456 1454 1451 1449 1447 1446 1443 1440 1438 1436 1433 1431 1426 1419 1414 1409 1405 1400 1394 1388 1382 1374
1410 1414 1421 1427 1433 1440 1446 1449 1453 1456 1459 1461 1462 1463 1462 1462 1462 1460 1458 1456 1453 1451 1449 1447 1445 1442 1440 1438 1435 1432 1429 1426 1423 1419 1414 1409 1404 1399 1395 1389 1383 1376 1368
1413 1418 1425 1432 1438 1443 1446 1449 1452 1455 1457 1459 1459 1460 1459 1459 1457 1456 1453 1450 1448 1446 1444 1442 1440 1438 1436 1433 1430 1426 1422 1418 1415 1411 1407 1402 1397 1393 1389 1383 1377 1370 1361
1419 1425 1431 1437 1441 1444 1447 1450 1452 1454 1455 1456 1457 1457 1457 1456 1454 1452 1448 1445 1443 1441 1439 1437 1435 1433 1431 1429 1425 1421 1415 1411 1407 1403 1399 1394 1390 1385 1381 1377 1372 1366 1358
1425 1430 1435 1440 1443 1445 1447 1450 1452 1453 1454 1455 1455 1454 1454 1452 1450 1448 1445 1442 1439 1436 1434 1432 1430 1428 1426 1423 1420 1415 1410 1406 1402 1397 1392 1387 1383 1378 1374 1370 1366 1361 1353
1430 1434 1438 1441 1443 1446 1448 1450 1451 1452 1452 1453 1452 1452 1451 1449 1447 1444 1442 1440 1437 1434 1431 1428 1426 1424 1421 1417 1414 1409 1406 1402 1397 1392 1387 1381 1377 1372 1367 1363 1358 1353 1346
1434 1437 1439 1442 1445 1447 1448 1449 1450 1451 1451 1450 1450 1449 1447 1445 1443 1441 1439 1436 1432 1430 1426 1424 1421 1418 1414 1411 1408 1405 1402 1398 1393 1388 1382 1377 1372 1367 1361 1355 1349 1344 1338
1436 1439 1442 1444 1446 1447 1448 1449 1449 1449 1449 1448 1447 1445 1444 1442 1440 1437 1434 1431 1428 1425 1422 1419 1416 1412 1409 1407 1404 1400 1397 1393 1389 1384 1378 1373 1367 1361 1355 1349 1342 1336 1328
1439 1441 1443 1445 1446 1447 1448 1448 1448 1448 1447 1446 1444 1442 1440 1438 1436 1434 1431 1427 1424 1421 1418 1414 1411 1408 1405 1402 1399 1396 1393 1389 1384 1379 1374 1368 1362 1356 1350 1344 1337 1330 1323
1441 1442 1444 1445 1446 1447 1447 1448 1447 1447 1445 1444 1441 1440 1437 1435 1432 1430 1427 1423 1420 1418 1415 1411 1407 1404 1401 1398 1395 1391 1388 1384 1379 1375 1370 1364 1358 1351 1345 1339 1333 1326 1318
1442 1444 1445 1446 1446 1447 1447 1447 1446 1445 1443 1441 1439 1436 1434 1432 1429 1426 1422 1420 1417 1414 1411 1407 1404 1401 1398 1395 1392 1388 1384 1380 1376 1371 1365 1360 1354 1347 1341 1334 1327 1320 1313
1443 1445 1446 1446 1446 1447 1446 1445 1444 1442 1441 1438 1437 1434 1432 1429 1425 1422 1419 1416 1413 1410 1407 1404 1401 1398 1395 1392 1389 1385 1380 1376 1371 1366 1361 1356 1350 1343 1336 1329 1322 1316 1308
1445 1446 1446 1447 1446 1446 1445 1444 1442 1440 1438 1435 1433 1431 1428 1425 1422 1419 1416 1413 1409 1406 1404 1401 1398 1395 1392 1389 1386 1382 1377 1372 1367 1362 1357 1352 1346 1339 1332 1325 1318 1311 1305
1446 1446 1446 1446 1446 1445 1443 1441 1439 1437 1435 1433 1430 1427 1424 1421 1418 1415 1412 1409 1407 1404 1401 1398 1395 1393 1390 1386 1382 1378 1373 1368 1363 1358 1353 1347 1342 1335 1328 1321 1314 1307 1300
1446 1446 1446 1445 1444 1443 1441 1439 1437 1435 1432 1429 1427 1424 1422 1419 1415 1412 1409 1407 1404 1401 1398 1395 1393 1390 1387 1383 1379 1374 1369 1365 1360 1355 1349 1343 1337 1330 1324 1318 1311 1304 1298
1446 1446 1445 1444 1442 1440 1438 1436 1434 1431 1429 1426 1424 1421 1419 1416 1413 1410 1407 1405 1402 1399 1396 1393 1390 1387 1384 1380 1375 1370 1366 1361 1356 1351 1345 1339 1333 1326 1320 1314 1308 1303 1297
1445 1444 1443 1442 1440 1438 1435 1433 1431 1428 1426 1424 1421 1418 1416 1413 1411 1408 1405 1403 1400 1397 1394 1391 1387 1384 1381 1377 1372 1368 1363 1358 1353 1348 1342 1335 1329 1324 1319 1314 1308 1302 1295
1443 1442 1441 1439 1437 1434 1432 1430 1428 1425 1423 1421 1418 1416 1414 1411 1409 1406 1404 1401 1398 1395 1392 1388 1385 1381 1378 1374 1369 1365 1361 1356 1351 1345 1341 1335 1330 1325 1319 1313 1307 1301 1294
1441 1440 1438 1436 1434 1431 1429 1427 1425 1422 1420 1418 1415 1413 1411 1409 1406 1404 1402 1399 1396 1393 1390 1386 1383 1379 1375 1371 1367 1363 1359 1355 1350 1346 1341 1336 1330 1324 1318 1312 1306 1300 1294
1439 1437 1435 1433 1430 1428 1426 1424 1421 1419 1417 1415 1412 1410 1408 1406 1404 1402 1399 1397 1394 1391 1388 1384 1381 1377 1373 1369 1365 1361 1357 1353 1349 1345 1340 1335 1329 1324 1318 1312 1306 1300 1294